Location: Enborne
(51.3833°N, 1.3667°W)
Time: 00:05:41
(UTC+00:00)

NOSS 2-2 (C) - Pass Details

Date: 26 January 2021
Orbit: 463 x 1745 km, 63.3° (Epoch: 03 March)

Event Time Altitude Azimuth Distance (km) Brightness Sun altitude
Rises 20:41:31 0° 312° (NW) 3,111 8.0 -36.5°
Reaches altitude 10° 20:43:37 10° 307° (NW) 2,333 7.2 -36.8°
Enters shadow 20:46:49 36° 285° (WNW) 1,373 5.6 -37.3°
